KUIPER-00020 (63735 NORAD) Tracking and Keplerian Element Data

This shows tracking and keplerian element data for the satellite.

Feedback or suggestion? Click here.




ElementValue
Catalog63735
NameKUIPER-00020
Epoch Orbit3579
Epoch Day353.56185792
Epoch Year2025
RAAN97.4036
Inclination51.9016
Eccentricity0.0009132
Argument of Perigee170.5438
Mean Anonmoly189.5698
Mean Motion14.79918274
Decay Rate6.347E-05
L11 63735U 25088M 25353.56185792 .00006347 00000+0 86081-3 0 9993
L22 63735 51.9016 97.4036 0009132 170.5438 189.5698 14.79918274 35792



Live tracking and technical data element details for KUIPER-00020 (NORAD 63735). KUIPER-00020 can be tracked NOW for your location showing map with azimuth and elevation plus other details from your city location.







IsCatalogInMostPopularTable: catalog: 63735, numindb: 4
Update: records affected: 1



GetName: 63735 KUIPER-00020

Hit Count: updated at: Tue, 14 Apr 2026 23:56:17 GMT